Location: Harwich
(41.7160°N, 69.9939°W)
Time: 14:02:49
(UTC+02:00)

QB50P2 - Visible Passes

Search period start: 17 September 2024 00:00
Search period end: 27 September 2024 00:00
Orbit: 559 x 571 km, 98.0° (Epoch: 16 September)

Date Brightness Start Highest point End Pass type
(mag) Time Alt. Az. Time Alt. Az. Time Alt. Az.
17 Sep ? 09:17:30 10° NNE 09:19:05 21° NE 09:19:05 21° NE visible
17 Sep ? 10:53:36 10° NNW 10:55:05 14° NW 10:55:05 14° NW visible
18 Sep ? 09:17:43 10° NNE 09:19:12 21° NE 09:19:12 21° NE visible
18 Sep ? 10:53:49 10° NNW 10:55:13 14° NW 10:55:13 14° NW visible
19 Sep ? 09:17:54 10° NNE 09:19:17 20° NE 09:19:17 20° NE visible
19 Sep ? 10:54:00 10° NNW 10:55:18 14° NW 10:55:18 14° NW visible
20 Sep ? 09:18:04 10° NNE 09:19:22 19° NE 09:19:22 19° NE visible
20 Sep ? 10:54:09 10° NNW 10:55:22 14° NW 10:55:22 14° NW visible
21 Sep ? 09:18:12 10° NNE 09:19:24 18° NE 09:19:24 18° NE visible
21 Sep ? 10:54:17 10° NNW 10:55:24 14° NW 10:55:24 14° NW visible
22 Sep ? 09:18:18 10° NNE 09:19:24 17° NNE 09:19:24 17° NNE visible
22 Sep ? 10:54:23 10° NNW 10:55:24 13° NW 10:55:24 13° NW visible
23 Sep ? 09:18:23 10° NNE 09:19:23 17° NNE 09:19:23 17° NNE visible
23 Sep ? 10:54:27 10° NNW 10:55:23 13° NW 10:55:23 13° NW visible
24 Sep ? 09:18:26 10° NNE 09:19:19 16° NNE 09:19:19 16° NNE visible
24 Sep ? 10:54:29 10° NNW 10:55:19 13° NW 10:55:19 13° NW visible
25 Sep ? 09:18:27 10° NNE 09:19:14 15° NNE 09:19:14 15° NNE visible
25 Sep ? 10:54:30 10° NNW 10:55:14 12° NW 10:55:14 12° NW visible
26 Sep ? 09:18:27 10° NNE 09:19:08 14° NNE 09:19:08 14° NNE visible
26 Sep ? 10:54:30 10° NNW 10:55:07 12° NW 10:55:07 12° NW visible
